KHV224 VDPP-WSSS

Flight info

Callsign KHV224
Flight time N/A
Altitude 34000
Route CONDA2 KISAN M755 BITOD/K0852F330 M753 IPRIX/N0461F330 Q802 ELALO ELALO1A
Aircraft A321/M-SDE3FGHIRWY/LB1

Departure

Time 2026-04-21 10:54
Airport Phnom Penh International Airport (VDPP)

Arrival

Time N/A
Airport Singapore Changi Airport (WSSS)
Time Latitude Longitude Altitude Speed Heading
2026-04-21 10:32 11.55291 104.84670 53 ft 0 kts 317°
2026-04-21 10:46 11.55290 104.84672 54 ft 2 kts 317°
2026-04-21 10:47 11.55270 104.84689 53 ft 4 kts 322°
2026-04-21 10:47 11.55248 104.84704 57 ft 4 kts 348°
2026-04-21 10:47 11.55231 104.84701 57 ft 3 kts 63°
2026-04-21 10:47 11.55219 104.84678 53 ft 3 kts 62°
2026-04-21 10:48 11.55217 104.84676 52 ft 0 kts 62°
2026-04-21 10:50 11.55222 104.84684 54 ft 5 kts 62°
2026-04-21 10:50 11.55237 104.84734 59 ft 8 kts 89°
2026-04-21 10:50 11.55206 104.84783 52 ft 9 kts 135°
2026-04-21 10:50 11.55150 104.84838 62 ft 11 kts 136°
2026-04-21 10:51 11.55129 104.84905 61 ft 11 kts 66°
2026-04-21 10:51 11.55202 104.84985 59 ft 20 kts 48°
2026-04-21 10:51 11.55324 104.85112 56 ft 28 kts 45°
2026-04-21 10:51 11.55458 104.85252 61 ft 27 kts 45°
2026-04-21 10:52 11.55525 104.85328 56 ft 13 kts 58°
2026-04-21 10:52 11.55567 104.85400 58 ft 11 kts 30°
2026-04-21 10:52 11.55594 104.85365 58 ft 6 kts 242°
2026-04-21 10:52 11.55557 104.85346 56 ft 6 kts 201°
2026-04-21 10:53 11.55518 104.85316 57 ft 9 kts 227°
2026-04-21 10:53 11.55385 104.85175 58 ft 59 kts 225°
2026-04-21 10:53 11.54946 104.84719 61 ft 120 kts 226°
2026-04-21 10:53 11.54234 104.83977 62 ft 170 kts 226°
2026-04-21 10:54 11.53388 104.83085 621 ft 172 kts 225°
2026-04-21 10:54 11.52569 104.82214 1332 ft 168 kts 223°
2026-04-21 10:54 11.51758 104.81354 1942 ft 171 kts 223°
2026-04-21 10:54 11.50925 104.80472 2267 ft 178 kts 223°
2026-04-21 10:55 11.49969 104.79584 2405 ft 194 kts 207°
2026-04-21 10:55 11.48625 104.79283 2554 ft 208 kts 174°
2026-04-21 10:55 11.47143 104.79565 2655 ft 227 kts 171°
2026-04-21 10:55 11.45498 104.79773 2764 ft 249 kts 173°
2026-04-21 10:56 11.43717 104.79939 3088 ft 261 kts 174°
2026-04-21 10:56 11.41897 104.80098 3641 ft 264 kts 174°
2026-04-21 10:56 11.40088 104.80265 4235 ft 266 kts 174°
2026-04-21 10:56 11.38236 104.80447 4803 ft 269 kts 174°
2026-04-21 10:57 11.36365 104.80639 5363 ft 272 kts 174°
2026-04-21 10:57 11.34477 104.80835 5942 ft 274 kts 175°
2026-04-21 10:57 11.32565 104.80734 6451 ft 278 kts 189°
2026-04-21 10:57 11.30642 104.80406 6944 ft 282 kts 189°
2026-04-21 10:58 11.28695 104.80074 7432 ft 286 kts 189°
2026-04-21 10:58 11.26714 104.79736 7923 ft 290 kts 189°
2026-04-21 10:58 11.25361 104.79506 8266 ft 292 kts 189°
2026-04-21 10:58 11.23368 104.79167 8723 ft 297 kts 188°
2026-04-21 10:59 11.20615 104.78705 9390 ft 301 kts 188°
2026-04-21 10:59 11.18537 104.78358 9862 ft 304 kts 188°
2026-04-21 10:59 11.17152 104.78125 10149 ft 307 kts 188°
2026-04-21 10:59 11.14987 104.77762 10264 ft 323 kts 188°
2026-04-21 11:00 11.12713 104.77381 10389 ft 338 kts 189°
2026-04-21 11:00 11.10344 104.76985 10501 ft 352 kts 188°
2026-04-21 11:00 11.07878 104.76571 10668 ft 363 kts 188°
2026-04-21 11:00 11.05367 104.76150 11008 ft 368 kts 188°
2026-04-21 11:01 11.02839 104.75725 11461 ft 369 kts 188°
2026-04-21 11:01 11.00298 104.75295 11879 ft 371 kts 189°
2026-04-21 11:01 10.97746 104.74862 12334 ft 372 kts 189°
2026-04-21 11:02 10.92615 104.73999 13194 ft 375 kts 189°
2026-04-21 11:02 10.90033 104.73563 13622 ft 376 kts 189°
2026-04-21 11:02 10.87441 104.73129 13978 ft 378 kts 189°
2026-04-21 11:02 10.84836 104.72692 14316 ft 381 kts 189°
2026-04-21 11:03 10.82217 104.72252 14657 ft 383 kts 189°
2026-04-21 11:03 10.79583 104.71807 14979 ft 385 kts 189°
2026-04-21 11:03 10.76930 104.71359 15313 ft 387 kts 189°
2026-04-21 11:03 10.74269 104.70912 15624 ft 390 kts 188°
2026-04-21 11:04 10.71620 104.70470 15930 ft 392 kts 188°
2026-04-21 11:04 10.68923 104.70019 16230 ft 395 kts 188°
2026-04-21 11:04 10.66200 104.69565 16541 ft 397 kts 188°
2026-04-21 11:04 10.63471 104.69108 16870 ft 399 kts 188°
2026-04-21 11:05 10.60722 104.68647 17172 ft 401 kts 188°
2026-04-21 11:05 10.57961 104.68186 17508 ft 403 kts 188°
2026-04-21 11:05 10.55191 104.67723 17836 ft 405 kts 188°
2026-04-21 11:05 10.52409 104.67257 18139 ft 406 kts 188°
2026-04-21 11:06 10.49603 104.66766 18378 ft 409 kts 188°
2026-04-21 11:06 10.46790 104.66256 18619 ft 411 kts 188°
2026-04-21 11:06 10.43969 104.65738 18877 ft 413 kts 189°
2026-04-21 11:06 10.41133 104.65217 19144 ft 414 kts 189°
2026-04-21 11:07 10.38289 104.64697 19390 ft 416 kts 189°
2026-04-21 11:07 10.35430 104.64179 19634 ft 418 kts 189°
2026-04-21 11:07 10.32554 104.63660 19871 ft 421 kts 189°
2026-04-21 11:07 10.29659 104.63140 20119 ft 423 kts 189°
2026-04-21 11:08 10.26758 104.62622 20372 ft 424 kts 189°
2026-04-21 11:08 10.23847 104.62102 20620 ft 426 kts 189°
2026-04-21 11:08 10.20918 104.61577 20889 ft 426 kts 189°
2026-04-21 11:08 10.18030 104.61058 21131 ft 428 kts 189°
2026-04-21 11:09 10.15095 104.60531 21362 ft 430 kts 189°
2026-04-21 11:09 10.12137 104.60002 21590 ft 432 kts 189°
2026-04-21 11:09 10.09173 104.59473 21825 ft 433 kts 189°
2026-04-21 11:09 10.06196 104.58942 22052 ft 435 kts 189°
2026-04-21 11:10 10.03207 104.58417 22274 ft 437 kts 188°
2026-04-21 11:10 10.00192 104.57901 22495 ft 439 kts 188°
2026-04-21 11:10 9.97194 104.57398 22718 ft 441 kts 188°
2026-04-21 11:10 9.94163 104.56893 22947 ft 443 kts 188°
2026-04-21 11:11 9.91117 104.56385 23158 ft 444 kts 188°
2026-04-21 11:11 9.88059 104.55872 23373 ft 446 kts 188°
2026-04-21 11:11 9.84991 104.55354 23563 ft 448 kts 188°
2026-04-21 11:11 9.81912 104.54833 23747 ft 449 kts 188°
2026-04-21 11:12 9.78824 104.54308 23934 ft 451 kts 188°
2026-04-21 11:12 9.75724 104.53783 24114 ft 452 kts 188°
2026-04-21 11:12 9.72611 104.53257 24293 ft 454 kts 188°
2026-04-21 11:12 9.69492 104.52732 24467 ft 455 kts 188°
2026-04-21 11:13 9.66357 104.52205 24643 ft 457 kts 188°
2026-04-21 11:13 9.63220 104.51677 24816 ft 458 kts 188°
2026-04-21 11:13 9.60059 104.51144 24989 ft 459 kts 188°
2026-04-21 11:13 9.56900 104.50610 25158 ft 461 kts 188°
2026-04-21 11:14 9.53732 104.50074 25332 ft 462 kts 188°
2026-04-21 11:14 9.50554 104.49537 25503 ft 463 kts 188°
2026-04-21 11:14 9.47370 104.49001 25673 ft 465 kts 188°
2026-04-21 11:14 9.44211 104.48472 25841 ft 466 kts 188°
2026-04-21 11:15 9.40966 104.47930 26014 ft 467 kts 188°
2026-04-21 11:15 9.37756 104.47392 26181 ft 469 kts 188°
2026-04-21 11:15 9.34575 104.46855 26340 ft 470 kts 188°
2026-04-21 11:15 9.31344 104.46304 26510 ft 471 kts 188°
2026-04-21 11:16 9.28101 104.45751 26676 ft 472 kts 188°
2026-04-21 11:16 9.24859 104.45203 26837 ft 474 kts 188°
2026-04-21 11:16 9.21602 104.44655 26998 ft 475 kts 188°
2026-04-21 11:16 9.18332 104.44107 27160 ft 476 kts 188°
2026-04-21 11:17 9.15060 104.43558 27325 ft 478 kts 188°
2026-04-21 11:17 9.11768 104.43004 27493 ft 479 kts 188°
2026-04-21 11:17 9.08477 104.42448 27657 ft 480 kts 188°
2026-04-21 11:17 9.05175 104.41890 27813 ft 481 kts 188°
2026-04-21 11:18 9.01866 104.41332 27970 ft 482 kts 188°
2026-04-21 11:18 8.98550 104.40777 28117 ft 483 kts 188°
2026-04-21 11:18 8.95228 104.40220 28282 ft 485 kts 188°
2026-04-21 11:18 8.91938 104.39666 28421 ft 486 kts 188°
2026-04-21 11:19 8.88596 104.39102 28561 ft 487 kts 188°
2026-04-21 11:19 8.85255 104.38537 28684 ft 488 kts 188°
2026-04-21 11:19 8.81899 104.37974 28817 ft 489 kts 188°
2026-04-21 11:19 8.78538 104.37411 28952 ft 489 kts 188°
2026-04-21 11:20 8.75178 104.36851 29093 ft 490 kts 188°
2026-04-21 11:20 8.71816 104.36291 29214 ft 490 kts 188°
2026-04-21 11:20 8.68448 104.35727 29362 ft 491 kts 189°
2026-04-21 11:20 8.65079 104.35160 29486 ft 491 kts 189°
2026-04-21 11:21 8.61708 104.34589 29623 ft 491 kts 189°
2026-04-21 11:21 8.58342 104.34016 29769 ft 491 kts 189°
2026-04-21 11:21 8.55015 104.33454 29906 ft 491 kts 189°
2026-04-21 11:21 8.51640 104.32889 30022 ft 491 kts 189°
2026-04-21 11:22 8.48257 104.32323 30136 ft 491 kts 189°
2026-04-21 11:22 8.44884 104.31760 30261 ft 491 kts 188°
2026-04-21 11:22 8.41521 104.31200 30433 ft 489 kts 189°
2026-04-21 11:22 8.38163 104.30640 30583 ft 488 kts 189°
2026-04-21 11:23 8.34815 104.30081 30717 ft 488 kts 189°
2026-04-21 11:23 8.31511 104.29527 30840 ft 488 kts 188°
2026-04-21 11:23 8.28165 104.28967 30959 ft 488 kts 188°
2026-04-21 11:23 8.24818 104.28405 31079 ft 487 kts 188°
2026-04-21 11:24 8.21469 104.27845 31199 ft 487 kts 188°
2026-04-21 11:24 8.18115 104.27284 31318 ft 487 kts 188°
2026-04-21 11:24 8.14769 104.26719 31438 ft 487 kts 189°
2026-04-21 11:24 8.11417 104.26152 31559 ft 487 kts 188°
2026-04-21 11:25 8.08073 104.25591 31681 ft 487 kts 188°
2026-04-21 11:25 8.04773 104.25039 31834 ft 486 kts 188°
2026-04-21 11:25 8.01438 104.24483 31970 ft 486 kts 188°
2026-04-21 11:25 7.98096 104.23927 32096 ft 486 kts 188°
2026-04-21 11:26 7.94765 104.23371 32213 ft 486 kts 188°
2026-04-21 11:26 7.91425 104.22816 32342 ft 486 kts 188°
2026-04-21 11:26 7.88090 104.22263 32462 ft 486 kts 188°
2026-04-21 11:26 7.84757 104.21707 32586 ft 486 kts 188°
2026-04-21 11:27 7.81424 104.21146 32719 ft 485 kts 188°
2026-04-21 11:27 7.78086 104.20585 32853 ft 485 kts 188°
2026-04-21 11:27 7.74761 104.20028 32978 ft 484 kts 188°
2026-04-21 11:27 7.71472 104.19480 33102 ft 484 kts 188°
2026-04-21 11:28 7.68147 104.18927 33224 ft 484 kts 188°
2026-04-21 11:28 7.64826 104.18371 33350 ft 484 kts 188°
2026-04-21 11:28 7.61508 104.17815 33480 ft 484 kts 188°
2026-04-21 11:28 7.58191 104.17259 33599 ft 483 kts 188°
2026-04-21 11:29 7.54864 104.16705 33765 ft 482 kts 188°
2026-04-21 11:29 7.51551 104.16155 33840 ft 482 kts 188°
2026-04-21 11:29 7.44935 104.15054 33849 ft 482 kts 188°
2026-04-21 11:30 7.38321 104.13946 33852 ft 482 kts 188°
2026-04-21 11:30 7.31722 104.12848 33852 ft 479 kts 188°
2026-04-21 11:31 7.25180 104.11941 33853 ft 476 kts 180°
2026-04-21 11:31 7.18564 104.12199 33852 ft 475 kts 175°
2026-04-21 11:32 7.11951 104.12545 33858 ft 476 kts 175°
2026-04-21 11:32 7.05336 104.12891 33862 ft 476 kts 175°
2026-04-21 11:33 6.98733 104.13365 33863 ft 474 kts 169°
2026-04-21 11:33 6.92214 104.14431 33862 ft 474 kts 169°
2026-04-21 11:34 6.85700 104.15492 33864 ft 474 kts 169°
2026-04-21 11:34 6.79179 104.16544 33864 ft 475 kts 169°
2026-04-21 11:35 6.72654 104.17592 33868 ft 475 kts 169°
2026-04-21 11:35 6.66169 104.18641 33869 ft 475 kts 169°
2026-04-21 11:36 6.59648 104.19695 33868 ft 475 kts 169°
2026-04-21 11:36 6.53123 104.20751 33869 ft 475 kts 169°
2026-04-21 11:37 6.46598 104.21801 33866 ft 475 kts 169°
2026-04-21 11:37 6.40107 104.22853 33869 ft 475 kts 169°
2026-04-21 11:38 6.33588 104.23904 33869 ft 475 kts 169°
2026-04-21 11:38 6.27057 104.24962 33869 ft 475 kts 169°
2026-04-21 11:39 6.20527 104.26013 33875 ft 475 kts 169°
2026-04-21 11:39 6.14008 104.27057 33876 ft 474 kts 169°
2026-04-21 11:40 6.07498 104.28107 33875 ft 474 kts 169°
2026-04-21 11:40 6.00982 104.29156 33871 ft 474 kts 169°
2026-04-21 11:41 5.94472 104.30204 33875 ft 473 kts 169°
2026-04-21 11:41 5.88014 104.31247 33873 ft 473 kts 170°
2026-04-21 11:42 5.81509 104.32299 33869 ft 473 kts 170°
2026-04-21 11:42 5.75002 104.33348 33869 ft 473 kts 170°
2026-04-21 11:43 5.68498 104.34385 33871 ft 473 kts 170°
2026-04-21 11:43 5.61992 104.35426 33870 ft 473 kts 170°
2026-04-21 11:44 5.55480 104.36480 33870 ft 473 kts 170°
2026-04-21 11:44 5.49011 104.37528 33870 ft 473 kts 171°
2026-04-21 11:45 5.42507 104.38572 33875 ft 473 kts 171°
2026-04-21 11:45 5.36013 104.39614 33877 ft 472 kts 171°
2026-04-21 11:46 5.29523 104.40659 33876 ft 472 kts 171°
2026-04-21 11:46 5.23039 104.41699 33869 ft 472 kts 171°
2026-04-21 11:47 5.16594 104.42731 33870 ft 471 kts 171°
2026-04-21 11:47 5.10122 104.43771 33875 ft 471 kts 171°
2026-04-21 11:48 5.03660 104.44818 33871 ft 470 kts 171°
2026-04-21 11:48 4.97196 104.45860 33868 ft 470 kts 171°
2026-04-21 11:49 4.90725 104.46889 33869 ft 470 kts 171°
2026-04-21 11:49 4.84260 104.47896 33866 ft 469 kts 172°
2026-04-21 11:50 4.77822 104.48717 33867 ft 469 kts 174°
2026-04-21 11:50 4.71338 104.49475 33866 ft 469 kts 174°
2026-04-21 11:51 4.64865 104.50269 33869 ft 468 kts 173°
2026-04-21 11:51 4.58396 104.51089 33870 ft 468 kts 173°
2026-04-21 11:52 4.53031 104.51772 33869 ft 468 kts 173°
2026-04-21 11:52 4.46566 104.52597 33869 ft 468 kts 173°
2026-04-21 11:53 4.40114 104.53410 33871 ft 467 kts 173°
2026-04-21 11:53 4.33649 104.54223 33866 ft 468 kts 173°
2026-04-21 11:54 4.27201 104.55035 33853 ft 463 kts 173°
2026-04-21 11:54 4.24057 104.55434 33847 ft 447 kts 173°
2026-04-21 11:54 4.21012 104.55826 33850 ft 437 kts 171°
2026-04-21 11:55 4.18087 104.56615 33849 ft 436 kts 156°
2026-04-21 11:55 4.15469 104.58124 33852 ft 435 kts 141°
2026-04-21 11:55 4.13362 104.60283 33852 ft 435 kts 124°
2026-04-21 11:55 4.11942 104.62910 33852 ft 434 kts 108°
2026-04-21 11:56 4.11269 104.65887 33852 ft 433 kts 92°
2026-04-21 11:56 4.11420 104.68894 33851 ft 432 kts 77°
2026-04-21 11:56 4.12347 104.71698 33852 ft 431 kts 61°
2026-04-21 11:56 4.14009 104.74174 33851 ft 429 kts 45°
2026-04-21 11:57 4.16248 104.76114 33850 ft 426 kts 31°
2026-04-21 11:57 4.18906 104.77398 33841 ft 423 kts 15°
2026-04-21 11:57 4.21785 104.77932 33834 ft 420 kts
2026-04-21 11:57 4.24705 104.77896 33830 ft 420 kts 356°
2026-04-21 11:58 4.30537 104.77326 33831 ft 422 kts 352°
2026-04-21 11:58 4.36352 104.76493 33829 ft 422 kts 346°
2026-04-21 11:59 4.39132 104.75562 33830 ft 420 kts 332°
2026-04-21 11:59 4.41581 104.73981 33835 ft 419 kts 318°
2026-04-21 11:59 4.43548 104.71844 33824 ft 418 kts 303°
2026-04-21 11:59 4.44890 104.69268 33819 ft 418 kts 288°
2026-04-21 12:00 4.45502 104.66471 33819 ft 418 kts 274°
2026-04-21 12:00 4.45358 104.63567 33854 ft 420 kts 259°
2026-04-21 12:00 4.44465 104.60778 33854 ft 423 kts 243°
2026-04-21 12:00 4.42871 104.58303 33854 ft 425 kts 228°
2026-04-21 12:01 4.40670 104.56321 33857 ft 427 kts 213°
2026-04-21 12:01 4.38012 104.54995 33854 ft 429 kts 198°
2026-04-21 12:01 4.35088 104.54426 33854 ft 431 kts 182°
2026-04-21 12:01 4.32081 104.54463 33855 ft 432 kts 177°
2026-04-21 12:02 4.23103 104.55447 33853 ft 433 kts 172°
2026-04-21 12:03 4.17307 104.56980 33849 ft 433 kts 150°
2026-04-21 12:03 4.14869 104.58738 33846 ft 433 kts 135°
2026-04-21 12:03 4.12997 104.61087 33840 ft 431 kts 118°
2026-04-21 12:03 4.11851 104.63846 33834 ft 430 kts 102°
2026-04-21 12:04 4.11520 104.66803 33823 ft 428 kts 86°
2026-04-21 12:04 4.12014 104.69721 33822 ft 425 kts 70°
2026-04-21 12:04 4.13276 104.72378 33817 ft 423 kts 54°
2026-04-21 12:04 4.15193 104.74592 33812 ft 421 kts 38°
2026-04-21 12:05 4.17617 104.76211 33820 ft 419 kts 23°
2026-04-21 12:05 4.20373 104.77112 33831 ft 417 kts
2026-04-21 12:05 4.23267 104.77275 33856 ft 418 kts 357°
2026-04-21 12:06 4.29109 104.76826 33857 ft 422 kts 352°
2026-04-21 12:06 4.34915 104.76041 33854 ft 423 kts 351°
2026-04-21 12:06 4.37771 104.75377 33854 ft 421 kts 338°
2026-04-21 12:07 4.40361 104.74028 33855 ft 420 kts 323°
2026-04-21 12:07 4.42513 104.72062 33851 ft 419 kts 308°
2026-04-21 12:07 4.44045 104.69624 33848 ft 418 kts 292°
2026-04-21 12:07 4.44862 104.66830 33842 ft 418 kts 277°
2026-04-21 12:08 4.44896 104.63928 33827 ft 418 kts 262°
2026-04-21 12:08 4.44167 104.61119 33826 ft 418 kts 246°
2026-04-21 12:08 4.42717 104.58596 33827 ft 419 kts 231°
2026-04-21 12:08 4.40636 104.56555 33822 ft 421 kts 216°
2026-04-21 12:09 4.38067 104.55138 33826 ft 423 kts 200°
2026-04-21 12:09 4.35201 104.54468 33820 ft 424 kts 184°
2026-04-21 12:09 4.32246 104.54465 33850 ft 427 kts 178°
2026-04-21 12:10 4.26283 104.55018 33855 ft 432 kts 173°
2026-04-21 12:10 4.20321 104.55861 33854 ft 433 kts 167°
2026-04-21 12:10 4.17485 104.56869 33855 ft 432 kts 151°
2026-04-21 12:11 4.15026 104.58591 33855 ft 432 kts 135°
2026-04-21 12:11 4.13136 104.60876 33855 ft 432 kts 120°
2026-04-21 12:11 4.11935 104.63620 33855 ft 432 kts 103°
2026-04-21 12:11 4.11550 104.66589 33849 ft 430 kts 86°
2026-04-21 12:12 4.11994 104.69526 33847 ft 427 kts 71°
2026-04-21 12:12 4.13216 104.72224 33840 ft 424 kts 55°
2026-04-21 12:12 4.15108 104.74475 33831 ft 422 kts 39°
2026-04-21 12:12 4.17521 104.76114 33832 ft 419 kts 23°
2026-04-21 12:13 4.20270 104.77033 33823 ft 417 kts
2026-04-21 12:13 4.26045 104.77072 33831 ft 417 kts 354°
2026-04-21 12:14 4.31827 104.76404 33829 ft 419 kts 352°
2026-04-21 12:14 4.37532 104.75410 33829 ft 418 kts 339°
2026-04-21 12:14 4.40129 104.74118 33831 ft 417 kts 324°
2026-04-21 12:15 4.42303 104.72212 33831 ft 416 kts 309°
2026-04-21 12:15 4.43901 104.69805 33825 ft 416 kts 294°
2026-04-21 12:15 4.44788 104.67056 33829 ft 416 kts 278°
2026-04-21 12:15 4.44900 104.64166 33829 ft 416 kts 263°
2026-04-21 12:16 4.44233 104.61350 33823 ft 417 kts 248°
2026-04-21 12:16 4.42835 104.58804 33829 ft 419 kts 232°
2026-04-21 12:16 4.40804 104.56714 33828 ft 420 kts 217°
2026-04-21 12:16 4.38277 104.55238 33828 ft 422 kts 201°
2026-04-21 12:17 4.35430 104.54502 33829 ft 424 kts 185°
2026-04-21 12:17 4.29552 104.54653 33834 ft 427 kts 175°
2026-04-21 12:18 4.23638 104.55374 33827 ft 429 kts 173°
2026-04-21 12:18 4.17829 104.56712 33838 ft 430 kts 153°
2026-04-21 12:18 4.15333 104.58350 33830 ft 430 kts 137°
2026-04-21 12:19 4.13371 104.60598 33833 ft 429 kts 121°
2026-04-21 12:19 4.12115 104.63288 33830 ft 427 kts 104°
2026-04-21 12:19 4.11676 104.66213 33832 ft 425 kts 88°
2026-04-21 12:19 4.12062 104.69130 33824 ft 423 kts 72°
2026-04-21 12:20 4.13212 104.71820 33826 ft 421 kts 56°
2026-04-21 12:20 4.15033 104.74093 33825 ft 418 kts 40°
2026-04-21 12:20 4.17396 104.75771 33850 ft 417 kts 25°
2026-04-21 12:20 4.20125 104.76741 33861 ft 418 kts
2026-04-21 12:21 4.23020 104.76957 33861 ft 419 kts 358°
2026-04-21 12:21 4.28853 104.76514 33860 ft 420 kts 352°
2026-04-21 12:22 4.34652 104.75738 33861 ft 420 kts 352°
2026-04-21 12:22 4.37499 104.75110 33859 ft 419 kts 338°
2026-04-21 12:22 4.40083 104.73791 33860 ft 417 kts 323°
2026-04-21 12:22 4.42227 104.71850 33854 ft 416 kts 308°
2026-04-21 12:23 4.43770 104.69412 33841 ft 415 kts 293°
2026-04-21 12:23 4.44593 104.66646 33836 ft 415 kts 277°
2026-04-21 12:23 4.44624 104.63763 33830 ft 415 kts 262°
2026-04-21 12:23 4.43879 104.60966 33855 ft 418 kts 246°
2026-04-21 12:24 4.42405 104.58453 33866 ft 422 kts 231°
2026-04-21 12:24 4.40302 104.56440 33859 ft 425 kts 215°
2026-04-21 12:24 4.37690 104.55062 33860 ft 427 kts 199°
2026-04-21 12:24 4.34784 104.54461 33860 ft 428 kts 182°
2026-04-21 12:25 4.31798 104.54498 33858 ft 430 kts 177°
2026-04-21 12:25 4.25829 104.55079 33864 ft 432 kts 173°
2026-04-21 12:26 4.19891 104.55966 33860 ft 431 kts 165°
2026-04-21 12:26 4.17113 104.57078 33858 ft 431 kts 149°
2026-04-21 12:26 4.14733 104.58881 33852 ft 430 kts 133°
2026-04-21 12:26 4.12934 104.61257 33848 ft 428 kts 117°
2026-04-21 12:27 4.11874 104.64030 33841 ft 426 kts 100°
2026-04-21 12:27 4.11631 104.66971 33834 ft 424 kts 84°
2026-04-21 12:27 4.12192 104.69848 33830 ft 421 kts 68°
2026-04-21 12:27 4.13492 104.72464 33828 ft 419 kts 53°
2026-04-21 12:28 4.15437 104.74612 33831 ft 417 kts 37°
2026-04-21 12:28 4.17883 104.76143 33837 ft 415 kts 21°
2026-04-21 12:28 4.20649 104.76961 33863 ft 416 kts
2026-04-21 12:29 4.26410 104.76920 33861 ft 419 kts 354°
2026-04-21 12:29 4.32201 104.76226 33860 ft 419 kts 351°
2026-04-21 12:30 4.37908 104.75111 33866 ft 418 kts 336°
2026-04-21 12:30 4.40443 104.73717 33866 ft 417 kts 322°
2026-04-21 12:30 4.42530 104.71715 33855 ft 416 kts 307°
2026-04-21 12:30 4.44001 104.69238 33849 ft 415 kts 291°
2026-04-21 12:31 4.44745 104.66453 33844 ft 414 kts 275°
2026-04-21 12:31 4.44708 104.63577 33836 ft 415 kts 260°
2026-04-21 12:31 4.43907 104.60801 33861 ft 417 kts 245°
2026-04-21 12:31 4.42388 104.58319 33869 ft 421 kts 229°
2026-04-21 12:32 4.40231 104.56331 33865 ft 424 kts 213°
2026-04-21 12:32 4.37600 104.55008 33865 ft 426 kts 198°
2026-04-21 12:32 4.34688 104.54452 33865 ft 428 kts 181°
2026-04-21 12:33 4.28715 104.54742 33866 ft 430 kts 174°
2026-04-21 12:33 4.22778 104.55490 33865 ft 430 kts 173°
2026-04-21 12:34 4.17065 104.57109 33859 ft 429 kts 148°
2026-04-21 12:34 4.14711 104.58922 33852 ft 428 kts 133°
2026-04-21 12:34 4.12943 104.61302 33846 ft 426 kts 116°
2026-04-21 12:34 4.11917 104.64027 33840 ft 424 kts 100°
2026-04-21 12:35 4.11681 104.66950 33834 ft 421 kts 84°
2026-04-21 12:35 4.11985 104.68908 33856 ft 421 kts 73°
2026-04-21 12:35 4.13608 104.72457 33866 ft 422 kts 52°
2026-04-21 12:35 4.15581 104.74578 33865 ft 421 kts 36°
2026-04-21 12:36 4.17190 104.75662 33867 ft 420 kts 26°
2026-04-21 12:36 4.20870 104.76874 33869 ft 418 kts
2026-04-21 12:36 4.23772 104.76940 33869 ft 418 kts 357°
2026-04-21 12:37 4.28592 104.76552 33865 ft 418 kts 352°
2026-04-21 12:37 4.34358 104.75789 33863 ft 418 kts 352°
2026-04-21 12:37 4.37207 104.75222 33862 ft 417 kts 340°
2026-04-21 12:38 4.39813 104.73989 33858 ft 415 kts 325°
2026-04-21 12:38 4.42004 104.72125 33853 ft 414 kts 310°
2026-04-21 12:38 4.43613 104.69749 33847 ft 413 kts 295°
2026-04-21 12:38 4.44523 104.67029 33840 ft 413 kts 279°
2026-04-21 12:39 4.44667 104.64145 33866 ft 416 kts 264°
2026-04-21 12:39 4.44044 104.61347 33865 ft 419 kts 248°
2026-04-21 12:39 4.42664 104.58778 33869 ft 421 kts 232°
2026-04-21 12:39 4.40616 104.56669 33865 ft 423 kts 217°
2026-04-21 12:40 4.38058 104.55206 33865 ft 426 kts 201°
2026-04-21 12:40 4.35183 104.54502 33865 ft 427 kts 184°
2026-04-21 12:40 4.32209 104.54483 33865 ft 428 kts 178°
2026-04-21 12:41 4.26264 104.55026 33869 ft 430 kts 173°
2026-04-21 12:41 4.20335 104.55868 33868 ft 430 kts 167°
2026-04-21 12:41 4.17515 104.56869 33867 ft 430 kts 151°
2026-04-21 12:42 4.15071 104.58568 33863 ft 428 kts 135°
2026-04-21 12:42 4.13184 104.60857 33855 ft 427 kts 119°
2026-04-21 12:42 4.12020 104.63566 33848 ft 424 kts 102°
2026-04-21 12:42 4.11658 104.66487 33842 ft 422 kts 86°
2026-04-21 12:43 4.12091 104.69337 33834 ft 420 kts 70°
2026-04-21 12:43 4.13282 104.71985 33833 ft 417 kts 55°
2026-04-21 12:43 4.15126 104.74215 33835 ft 415 kts 40°
2026-04-21 12:43 4.17482 104.75854 33838 ft 413 kts 24°
2026-04-21 12:44 4.20189 104.76794 33872 ft 414 kts
2026-04-21 12:44 4.23057 104.76997 33868 ft 415 kts 358°
2026-04-21 12:44 4.25953 104.76852 33869 ft 417 kts 354°
2026-04-21 12:45 4.31714 104.76183 33869 ft 417 kts 352°
2026-04-21 12:45 4.37422 104.75181 33868 ft 416 kts 339°
2026-04-21 12:45 4.40005 104.73900 33868 ft 415 kts 324°
2026-04-21 12:46 4.42167 104.71988 33868 ft 415 kts 309°
2026-04-21 12:46 4.43733 104.69579 33860 ft 414 kts 294°
2026-04-21 12:46 4.44590 104.66834 33852 ft 414 kts 278°
2026-04-21 12:46 4.44679 104.63963 33845 ft 414 kts 263°
2026-04-21 12:47 4.43998 104.61170 33839 ft 414 kts 247°
2026-04-21 12:47 4.42586 104.58653 33855 ft 416 kts 232°
2026-04-21 12:47 4.40539 104.56595 33872 ft 421 kts 216°
2026-04-21 12:47 4.37979 104.55159 33872 ft 424 kts 200°
2026-04-21 12:48 4.35109 104.54484 33871 ft 426 kts 184°
2026-04-21 12:48 4.29189 104.54694 33871 ft 429 kts 174°
2026-04-21 12:49 4.23258 104.55428 33873 ft 429 kts 172°
2026-04-21 12:49 4.17512 104.56877 33869 ft 428 kts 151°
2026-04-21 12:49 4.15091 104.58587 33863 ft 427 kts 135°
2026-04-21 12:50 4.13222 104.60874 33856 ft 425 kts 119°
2026-04-21 12:50 4.12066 104.63576 33850 ft 422 kts 102°
2026-04-21 12:50 4.11716 104.66487 33848 ft 420 kts 86°
2026-04-21 12:50 4.12180 104.69353 33847 ft 417 kts 70°
2026-04-21 12:51 4.13394 104.71976 33862 ft 416 kts 54°
2026-04-21 12:51 4.15263 104.74177 33874 ft 417 kts 39°
2026-04-21 12:51 4.17670 104.75790 33874 ft 417 kts 23°
2026-04-21 12:51 4.20375 104.76678 33874 ft 416 kts
2026-04-21 12:52 4.23260 104.76845 33875 ft 415 kts 358°
2026-04-21 12:52 4.29028 104.76398 33870 ft 416 kts 352°
2026-04-21 12:53 4.34772 104.75620 33868 ft 416 kts 351°
2026-04-21 12:53 4.37584 104.74961 33866 ft 414 kts 338°
2026-04-21 12:53 4.40126 104.73623 33863 ft 413 kts 323°
2026-04-21 12:53 4.42226 104.71672 33857 ft 412 kts 308°
2026-04-21 12:54 4.43728 104.69237 33846 ft 412 kts 292°
2026-04-21 12:54 4.44517 104.66480 33842 ft 412 kts 276°
2026-04-21 12:54 4.44528 104.63618 33844 ft 413 kts 261°
2026-04-21 12:54 4.43771 104.60869 33873 ft 417 kts 246°
2026-04-21 12:55 4.42275 104.58377 33874 ft 420 kts 230°
2026-04-21 12:55 4.40115 104.56353 33870 ft 423 kts 214°
2026-04-21 12:55 4.37533 104.55030 33871 ft 425 kts 198°
2026-04-21 12:55 4.34640 104.54463 33870 ft 426 kts 182°
2026-04-21 12:56 4.31665 104.54509 33872 ft 428 kts 177°
2026-04-21 12:56 4.25737 104.55086 33873 ft 428 kts 173°
2026-04-21 12:57 4.19843 104.55970 33868 ft 428 kts 164°
2026-04-21 12:57 4.17099 104.57102 33867 ft 428 kts 148°
2026-04-21 12:57 4.14755 104.58918 33861 ft 426 kts 133°
2026-04-21 12:57 4.12999 104.61286 33857 ft 424 kts 116°
2026-04-21 12:58 4.11970 104.64043 33851 ft 422 kts 100°
2026-04-21 12:58 4.11751 104.66954 33847 ft 419 kts 83°
2026-04-21 12:58 4.12336 104.69793 33843 ft 417 kts 68°
2026-04-21 12:58 4.13664 104.72353 33839 ft 414 kts 52°
2026-04-21 12:59 4.15621 104.74449 33841 ft 412 kts 36°
2026-04-21 12:59 4.18062 104.75934 33870 ft 412 kts 21°
2026-04-21 12:59 4.20822 104.76718 33875 ft 413 kts
2026-04-21 13:00 4.26532 104.76622 33878 ft 415 kts 354°
2026-04-21 13:00 4.32265 104.75926 33877 ft 415 kts 352°
2026-04-21 13:01 4.37908 104.74801 33873 ft 414 kts 336°
2026-04-21 13:01 4.40401 104.73382 33876 ft 413 kts 321°
2026-04-21 13:01 4.42434 104.71366 33872 ft 412 kts 306°
2026-04-21 13:01 4.43854 104.68880 33861 ft 412 kts 290°
2026-04-21 13:02 4.44547 104.66106 33855 ft 412 kts 275°
2026-04-21 13:02 4.44457 104.63244 33847 ft 413 kts 259°
2026-04-21 13:02 4.42021 104.58098 33842 ft 415 kts 228°
2026-04-21 13:03 4.39850 104.56185 33840 ft 417 kts 212°
2026-04-21 13:03 4.37236 104.54934 33842 ft 418 kts 196°
2026-04-21 13:03 4.34372 104.54446 33854 ft 420 kts 181°
2026-04-21 13:03 4.31433 104.54510 33876 ft 424 kts 176°
2026-04-21 13:04 4.25526 104.55112 33876 ft 428 kts 173°
2026-04-21 13:04 4.19648 104.56031 33874 ft 428 kts 163°
2026-04-21 13:05 4.16927 104.57205 33879 ft 427 kts 147°
2026-04-21 13:05 4.14624 104.59056 33879 ft 426 kts 131°
2026-04-21 13:05 4.12917 104.61471 33879 ft 425 kts 115°
2026-04-21 13:05 4.11957 104.64260 33876 ft 423 kts 98°
2026-04-21 13:06 4.11813 104.67180 33865 ft 420 kts 82°
2026-04-21 13:06 4.12475 104.70009 33858 ft 417 kts 66°
2026-04-21 13:06 4.13871 104.72537 33853 ft 414 kts 50°
2026-04-21 13:06 4.15880 104.74574 33851 ft 412 kts 34°
2026-04-21 13:07 4.18359 104.75978 33846 ft 409 kts 19°
2026-04-21 13:07 4.21112 104.76664 33847 ft 408 kts
2026-04-21 13:07 4.26779 104.76516 33844 ft 409 kts 354°
2026-04-21 13:08 4.32445 104.75820 33845 ft 411 kts 352°
2026-04-21 13:08 4.37996 104.74666 33850 ft 411 kts 335°
2026-04-21 13:09 4.40455 104.73232 33849 ft 410 kts 321°
2026-04-21 13:09 4.42453 104.71206 33848 ft 410 kts 305°
2026-04-21 13:09 4.43828 104.68712 33846 ft 410 kts 289°
2026-04-21 13:09 4.44474 104.65928 33878 ft 413 kts 274°
2026-04-21 13:10 4.44349 104.63047 33879 ft 416 kts 258°
2026-04-21 13:10 4.43439 104.60296 33878 ft 418 kts 243°
2026-04-21 13:10 4.41802 104.57891 33881 ft 420 kts 227°
2026-04-21 13:10 4.39554 104.56022 33875 ft 422 kts 211°
2026-04-21 13:11 4.36902 104.54846 33881 ft 424 kts 194°
2026-04-21 13:11 4.33988 104.54450 33880 ft 425 kts 180°
2026-04-21 13:11 4.28066 104.54820 33883 ft 427 kts 174°
2026-04-21 13:12 4.22168 104.55572 33882 ft 427 kts 173°
2026-04-21 13:12 4.19255 104.56144 33877 ft 427 kts 160°
2026-04-21 13:12 4.16593 104.57422 33875 ft 425 kts 145°
2026-04-21 13:13 4.14363 104.59358 33874 ft 424 kts 129°
2026-04-21 13:13 4.12759 104.61809 33866 ft 422 kts 112°
2026-04-21 13:13 4.11911 104.64600 33861 ft 419 kts 96°
2026-04-21 13:13 4.11877 104.67502 33854 ft 416 kts 80°
2026-04-21 13:14 4.12632 104.70284 33854 ft 414 kts 64°
2026-04-21 13:14 4.14098 104.72739 33849 ft 411 kts 48°
2026-04-21 13:14 4.16161 104.74706 33848 ft 409 kts 33°
2026-04-21 13:14 4.18667 104.76038 33865 ft 409 kts 17°
2026-04-21 13:15 4.21442 104.76641 33883 ft 410 kts
2026-04-21 13:15 4.24267 104.76632 33882 ft 412 kts 356°
2026-04-21 13:15 4.29990 104.76093 33882 ft 413 kts 352°
2026-04-21 13:16 4.35686 104.75302 33876 ft 413 kts 348°
2026-04-21 13:16 4.38413 104.74417 33881 ft 412 kts 333°
2026-04-21 13:16 4.40806 104.72860 33879 ft 411 kts 318°
2026-04-21 13:17 4.42702 104.70723 33869 ft 411 kts 302°
2026-04-21 13:17 4.43955 104.68151 33859 ft 411 kts 287°
2026-04-21 13:17 4.44463 104.65343 33855 ft 411 kts 271°
2026-04-21 13:17 4.44187 104.62496 33851 ft 412 kts 256°
2026-04-21 13:18 4.43148 104.59826 33844 ft 413 kts 239°
2026-04-21 13:18 4.41419 104.57533 33848 ft 414 kts 224°
2026-04-21 13:18 4.39128 104.55788 33847 ft 416 kts 208°
2026-04-21 13:18 4.36434 104.54732 33880 ft 420 kts 192°
2026-04-21 13:19 4.33525 104.54444 33883 ft 423 kts 179°
2026-04-21 13:19 4.30573 104.54577 33882 ft 425 kts 175°
2026-04-21 13:19 4.24671 104.55234 33885 ft 426 kts 172°
2026-04-21 13:20 4.18783 104.56024 33886 ft 429 kts 173°
2026-04-21 13:20 4.12817 104.56670 33886 ft 439 kts 175°
2026-04-21 13:21 4.06686 104.57235 33887 ft 442 kts 175°
2026-04-21 13:21 4.00563 104.57801 33887 ft 441 kts 175°
2026-04-21 13:22 3.94457 104.58398 33886 ft 440 kts 174°
2026-04-21 13:22 3.88356 104.59006 33886 ft 441 kts 174°
2026-04-21 13:23 3.83284 104.59507 33886 ft 441 kts 175°
2026-04-21 13:23 3.76132 104.60205 33888 ft 445 kts 175°
2026-04-21 13:24 3.70955 104.60709 33885 ft 454 kts 175°
2026-04-21 13:24 3.64587 104.61330 33888 ft 462 kts 174°
2026-04-21 13:25 3.58178 104.61956 33888 ft 463 kts 174°
2026-04-21 13:25 3.51800 104.62589 33890 ft 463 kts 174°
2026-04-21 13:26 3.45378 104.63221 33890 ft 463 kts 174°
2026-04-21 13:26 3.38960 104.63849 33884 ft 464 kts 174°
2026-04-21 13:27 3.32525 104.64478 33892 ft 464 kts 174°
2026-04-21 13:27 3.26131 104.65107 33904 ft 464 kts 175°
2026-04-21 13:28 3.19703 104.65744 33913 ft 463 kts 175°
2026-04-21 13:28 3.13305 104.66373 33694 ft 457 kts 175°
2026-04-21 13:29 3.10159 104.66632 33438 ft 450 kts 180°
2026-04-21 13:29 3.07063 104.66375 33183 ft 446 kts 192°
2026-04-21 13:29 3.03193 104.65091 32848 ft 440 kts 207°
2026-04-21 13:29 3.01401 104.64086 32545 ft 436 kts 214°
2026-04-21 13:30 2.99037 104.62199 32050 ft 432 kts 226°
2026-04-21 13:30 2.96983 104.60029 31570 ft 428 kts 227°
2026-04-21 13:30 2.94955 104.57855 31095 ft 426 kts 227°
2026-04-21 13:30 2.92966 104.55725 30628 ft 423 kts 227°
2026-04-21 13:31 2.90954 104.53573 30157 ft 421 kts 227°
2026-04-21 13:31 2.88959 104.51440 29648 ft 419 kts 227°
2026-04-21 13:31 2.86983 104.49324 29196 ft 415 kts 227°
2026-04-21 13:31 2.85023 104.47225 28747 ft 410 kts 227°
2026-04-21 13:32 2.83080 104.45147 28317 ft 406 kts 227°
2026-04-21 13:32 2.81160 104.43098 27892 ft 402 kts 227°
2026-04-21 13:32 2.79254 104.41065 27483 ft 398 kts 227°
2026-04-21 13:32 2.77368 104.39054 27076 ft 394 kts 227°
2026-04-21 13:33 2.75502 104.37059 26676 ft 390 kts 227°
2026-04-21 13:33 2.73654 104.35084 26283 ft 387 kts 227°
2026-04-21 13:33 2.71828 104.33132 25895 ft 383 kts 227°
2026-04-21 13:33 2.70015 104.31196 25495 ft 379 kts 227°
2026-04-21 13:34 2.68221 104.29279 25091 ft 376 kts 227°
2026-04-21 13:34 2.66441 104.27377 24700 ft 373 kts 227°
2026-04-21 13:34 2.64673 104.25487 24292 ft 371 kts 227°
2026-04-21 13:34 2.62919 104.23614 23892 ft 368 kts 227°
2026-04-21 13:35 2.61170 104.21748 23470 ft 367 kts 227°
2026-04-21 13:35 2.59428 104.19889 23009 ft 365 kts 227°